When you browse on this site, cookies collect data to enhance your experience and personalize the content and advertising you see.
Visit our Privacy Policy to learn more. By continuing to use the site, you agree to this use of cookies and data.
  • Em Portugal
  • Lista de países
  • Para 7 dias
  • Temperatura da água
  • Mapas de satélite
  • Mapa do tempo
  • Widgets de tempo
  • user-avatar
    Iniciar Sessão

    Previsão horária em Bozatki

    Hoje, 16 Junho, Domingo

    Tempo Temperatura Precipitação Vento Pressão Humidade
    00:00 +19°C° 0.1 mm 3 m/s 751 mmHg 92%
    01:00 +19°C° 0 mm 2 m/s 752 mmHg 91%
    02:00 +19°C° 0.1 mm 3 m/s 752 mmHg 91%
    03:00 +19°C° 0.1 mm 3 m/s 752 mmHg 91%
    04:00 +20°C° 0.1 mm 4 m/s 752 mmHg 91%
    05:00 +20°C° 0 mm 4 m/s 752 mmHg 89%
    06:00 +20°C° 0 mm 4 m/s 753 mmHg 87%
    07:00 +21°C° 0 mm 4 m/s 753 mmHg 84%
    08:00 +21°C° 0 mm 4 m/s 754 mmHg 82%
    09:00 +22°C° 0 mm 5 m/s 754 mmHg 79%
    10:00 +22°C° 0 mm 5 m/s 754 mmHg 77%
    11:00 +22°C° 0 mm 5 m/s 754 mmHg 76%
    12:00 +22°C° 0 mm 5 m/s 755 mmHg 75%
    13:00 +22°C° 0 mm 5 m/s 755 mmHg 74%
    14:00 +22°C° 0 mm 6 m/s 755 mmHg 73%
    15:00 +22°C° 0 mm 6 m/s 755 mmHg 72%
    16:00 +22°C° 0 mm 6 m/s 755 mmHg 70%
    17:00 +22°C° 0 mm 5 m/s 755 mmHg 72%
    18:00 +21°C° 0 mm 4 m/s 756 mmHg 74%
    19:00 +20°C° 0 mm 3 m/s 756 mmHg 76%
    20:00 +19°C° 0 mm 3 m/s 756 mmHg 78%
    21:00 +18°C° 0 mm 3 m/s 757 mmHg 80%
    22:00 +16°C° 0 mm 3 m/s 757 mmHg 82%
    23:00 +16°C° 0 mm 3 m/s 757 mmHg 83%

    Amanhã, 17 Junho, Segunda-feira

    Tempo Temperatura Precipitação Vento Pressão Humidade
    00:00 +14°C° 0 mm 3 m/s 757 mmHg 85%
    01:00 +13°C° 0 mm 3 m/s 757 mmHg 86%
    02:00 +13°C° 0 mm 3 m/s 757 mmHg 86%
    03:00 +12°C° 0 mm 3 m/s 757 mmHg 86%
    04:00 +12°C° 0 mm 3 m/s 757 mmHg 85%
    05:00 +13°C° 0 mm 3 m/s 758 mmHg 81%
    06:00 +16°C° 0 mm 3 m/s 758 mmHg 78%
    07:00 +17°C° 0 mm 3 m/s 758 mmHg 74%
    08:00 +19°C° 0 mm 3 m/s 758 mmHg 68%
    09:00 +20°C° 0 mm 4 m/s 758 mmHg 63%
    10:00 +22°C° 0 mm 4 m/s 758 mmHg 58%
    11:00 +22°C° 0 mm 4 m/s 758 mmHg 56%
    12:00 +23°C° 0 mm 4 m/s 758 mmHg 55%
    13:00 +25°C° 0 mm 4 m/s 758 mmHg 53%
    14:00 +25°C° 0 mm 4 m/s 758 mmHg 54%
    15:00 +25°C° 0 mm 3 m/s 757 mmHg 55%
    16:00 +25°C° 0 mm 3 m/s 757 mmHg 56%
    17:00 +24°C° 0 mm 3 m/s 757 mmHg 62%
    18:00 +23°C° 0 mm 2 m/s 757 mmHg 68%
    19:00 +21°C° 0 mm 2 m/s 757 mmHg 74%
    20:00 +20°C° 0 mm 2 m/s 757 mmHg 77%
    21:00 +18°C° 0 mm 2 m/s 757 mmHg 79%
    22:00 +17°C° 0 mm 2 m/s 758 mmHg 81%
    23:00 +16°C° 0 mm 2 m/s 758 mmHg 80%

    Depois de amanhã, 18 Junho, Terça-feira

    Tempo Temperatura Precipitação Vento Pressão Humidade
    00:00 +16°C° 0 mm 2 m/s 757 mmHg 79%
    01:00 +14°C° 0 mm 3 m/s 757 mmHg 77%
    02:00 +14°C° 0 mm 3 m/s 757 mmHg 80%
    03:00 +13°C° 0 mm 3 m/s 757 mmHg 82%
    04:00 +13°C° 0 mm 3 m/s 757 mmHg 85%
    05:00 +14°C° 0 mm 3 m/s 757 mmHg 83%
    06:00 +17°C° 0 mm 3 m/s 757 mmHg 81%
    07:00 +18°C° 0 mm 3 m/s 757 mmHg 79%
    08:00 +20°C° 0 mm 3 m/s 757 mmHg 74%
    09:00 +21°C° 0 mm 4 m/s 757 mmHg 68%
    10:00 +23°C° 0 mm 4 m/s 757 mmHg 63%
    11:00 +25°C° 0 mm 4 m/s 756 mmHg 66%
    12:00 +25°C° 0 mm 4 m/s 756 mmHg 65%
    13:00 +26°C° 0 mm 4 m/s 755 mmHg 63%
    14:00 +26°C° 0 mm 4 m/s 755 mmHg 63%
    15:00 +26°C° 0 mm 4 m/s 755 mmHg 62%
    16:00 +26°C° 0 mm 4 m/s 754 mmHg 62%
    17:00 +26°C° 0 mm 4 m/s 754 mmHg 67%
    18:00 +25°C° 0 mm 3 m/s 754 mmHg 72%
    19:00 +24°C° 0 mm 3 m/s 754 mmHg 77%
    20:00 +22°C° 0 mm 3 m/s 754 mmHg 79%
    21:00 +21°C° 0 mm 3 m/s 754 mmHg 80%
    22:00 +20°C° 0 mm 3 m/s 754 mmHg 82%
    23:00 +20°C° 0 mm 3 m/s 754 mmHg 83%

    19 Junho, Quarta-feira

    Tempo Temperatura Precipitação Vento Pressão Humidade
    00:00 +19°C° 0 mm 3 m/s 753 mmHg 83%
    01:00 +19°C° 0 mm 3 m/s 753 mmHg 84%
    02:00 +19°C° 0 mm 3 m/s 753 mmHg 87%
    03:00 +18°C° 0 mm 3 m/s 753 mmHg 90%
    04:00 +18°C° 0 mm 3 m/s 753 mmHg 93%
    05:00 +19°C° 0 mm 3 m/s 752 mmHg 90%
    06:00 +21°C° 0 mm 3 m/s 752 mmHg 87%
    07:00 +22°C° 0 mm 3 m/s 752 mmHg 84%
    08:00 +24°C° 0.1 mm 3 m/s 752 mmHg 79%
    09:00 +26°C° 0.1 mm 3 m/s 752 mmHg 74%
    10:00 +27°C° 0.1 mm 3 m/s 752 mmHg 69%
    11:00 +27°C° 0.4 mm 3 m/s 751 mmHg 67%
    12:00 +28°C° 0.4 mm 3 m/s 751 mmHg 64%
    13:00 +29°C° 0.4 mm 2 m/s 751 mmHg 62%
    14:00 +29°C° 0.1 mm 2 m/s 750 mmHg 62%
    15:00 +28°C° 0.1 mm 2 m/s 750 mmHg 63%
    16:00 +28°C° 0.1 mm 1 m/s 750 mmHg 63%
    17:00 +27°C° 0.1 mm 1 m/s 750 mmHg 68%
    18:00 +27°C° 0.1 mm 2 m/s 750 mmHg 73%
    19:00 +26°C° 0.1 mm 2 m/s 749 mmHg 78%
    20:00 +25°C° 0 mm 2 m/s 750 mmHg 79%
    21:00 +23°C° 0 mm 2 m/s 750 mmHg 80%
    22:00 +21°C° 0 mm 2 m/s 750 mmHg 82%
    23:00 +21°C° 0 mm 2 m/s 750 mmHg 84%

    20 Junho, Quinta-feira

    Tempo Temperatura Precipitação Vento Pressão Humidade
    00:00 +20°C° 0 mm 2 m/s 750 mmHg 86%
    01:00 +20°C° 0 mm 2 m/s 750 mmHg 88%
    02:00 +20°C° 0 mm 2 m/s 750 mmHg 88%
    03:00 +20°C° 0 mm 2 m/s 750 mmHg 88%
    04:00 +19°C° 0 mm 2 m/s 750 mmHg 89%
    05:00 +21°C° 0 mm 2 m/s 750 mmHg 85%
    06:00 +23°C° 0 mm 2 m/s 750 mmHg 81%
    07:00 +25°C° 0 mm 2 m/s 750 mmHg 76%
    08:00 +26°C° 0 mm 2 m/s 750 mmHg 71%
    09:00 +27°C° 0 mm 2 m/s 750 mmHg 66%
    10:00 +29°C° 0 mm 2 m/s 750 mmHg 61%
    11:00 +29°C° 0 mm 2 m/s 750 mmHg 56%
    12:00 +30°C° 0 mm 2 m/s 750 mmHg 51%
    13:00 +31°C° 0 mm 2 m/s 750 mmHg 47%
    14:00 +31°C° 0 mm 1 m/s 750 mmHg 46%
    15:00 +31°C° 0 mm 1 m/s 750 mmHg 45%
    16:00 +32°C° 0 mm 1 m/s 750 mmHg 44%
    17:00 +29°C° 0.1 mm 1 m/s 750 mmHg 52%
    18:00 +27°C° 0.1 mm 2 m/s 751 mmHg 60%
    19:00 +25°C° 0.1 mm 2 m/s 751 mmHg 67%
    20:00 +24°C° 0.4 mm 2 m/s 751 mmHg 71%
    21:00 +23°C° 0.4 mm 1 m/s 751 mmHg 75%
    22:00 +21°C° 0.4 mm 1 m/s 752 mmHg 79%
    23:00 +21°C° 0.1 mm 1 m/s 752 mmHg 81%

    21 Junho, Sexta-feira

    Tempo Temperatura Precipitação Vento Pressão Humidade
    00:00 +20°C° 0.1 mm 1 m/s 752 mmHg 83%
    01:00 +20°C° 0.1 mm 1 m/s 752 mmHg 85%
    02:00 +20°C° 0.2 mm 1 m/s 752 mmHg 86%
    03:00 +20°C° 0.2 mm 1 m/s 752 mmHg 88%
    04:00 +20°C° 0.2 mm 1 m/s 752 mmHg 89%
    05:00 +21°C° 0 mm 1 m/s 753 mmHg 85%
    06:00 +22°C° 0 mm 1 m/s 753 mmHg 81%
    07:00 +24°C° 0 mm 1 m/s 753 mmHg 77%
    08:00 +25°C° 0 mm 1 m/s 753 mmHg 72%
    09:00 +26°C° 0 mm 1 m/s 753 mmHg 67%
    10:00 +27°C° 0 mm 2 m/s 753 mmHg 63%
    11:00 +28°C° 0 mm 2 m/s 753 mmHg 60%
    12:00 +29°C° 0 mm 2 m/s 753 mmHg 58%
    13:00 +30°C° 0 mm 2 m/s 752 mmHg 55%
    14:00 +30°C° 0.2 mm 2 m/s 752 mmHg 56%
    15:00 +30°C° 0.2 mm 2 m/s 751 mmHg 57%
    16:00 +30°C° 0.2 mm 2 m/s 751 mmHg 58%
    17:00 +29°C° 1.2 mm 2 m/s 751 mmHg 65%
    18:00 +27°C° 1.2 mm 3 m/s 751 mmHg 72%
    19:00 +26°C° 1.2 mm 3 m/s 751 mmHg 79%
    20:00 +23°C° 4.6 mm 4 m/s 751 mmHg 85%
    21:00 +22°C° 4.6 mm 5 m/s 751 mmHg 90%
    22:00 +21°C° 4.6 mm 6 m/s 751 mmHg 95%
    23:00 +20°C° 2 mm 5 m/s 751 mmHg 96%
    Mostrar mais